Last 24 Hours

Red Mountain

10 Minute Data | America/Los_Angeles
as of 8/31/26 7:46 PM PDT
Date & Time Temp (°F) Dew Pt (°F) RH (%) Wind Spd (mph) Wind Dir (°) Wind Gust (mph) Wind Gst Dir (°) Daily Max Temp (°F) Daily Min Temp (°F)
8/31/26 - 1940 66.0 38.2 36 5.7 WSW | 244 8.5 WSW | 242 78.3 65.9
8/31/26 - 1930 66.6 37.3 34 8.1 WSW | 238 13.4 WSW | 242 78.3 66.1
8/31/26 - 1920 67.1 36.9 33 8.4 WSW | 239 12.5 SW | 230 78.3 66.3
8/31/26 - 1910 67.6 37.2 33 9.5 SW | 234 13.8 SW | 228 78.3 66.3
8/31/26 - 1900 68.2 38.7 34 8.6 WSW | 238 13.8 WSW | 240 78.3 66.3
8/31/26 - 1850 69.1 37.6 31 7.6 SW | 230 11.6 SW | 232 78.3 66.3
8/31/26 - 1840 69.0 37.2 31 9.1 SW | 230 13.7 SW | 233 78.3 66.3
8/31/26 - 1830 69.7 35.9 29 9.2 SW | 231 14.4 WSW | 237 78.3 66.3
8/31/26 - 1820 70.1 36.7 30 10.7 SW | 236 16.4 SW | 229 78.3 66.3
8/31/26 - 1810 70.7 37.9 30 10.4 SW | 236 14.8 WSW | 246 78.3 66.3
8/31/26 - 1800 70.3 35.4 28 11.5 SW | 236 17.4 SW | 220 78.3 66.3
8/31/26 - 1750 71.2 35.7 27 11.7 SW | 236 17.1 WSW | 251 78.3 66.3
8/31/26 - 1740 71.4 35.8 27 12.3 SW | 233 17.8 SW | 232 78.3 66.3
8/31/26 - 1730 72.2 38.1 29 13.3 SW | 234 18.5 SW | 235 78.3 66.3
8/31/26 - 1720 72.3 39.9 31 12.1 SW | 236 19.8 WSW | 253 78.3 66.3
8/31/26 - 1710 72.6 43.7 35 12.5 SW | 234 19.5 WSW | 246 78.3 66.3
8/31/26 - 1700 72.7 43.5 35 14.0 SW | 233 20.0 WSW | 248 78.3 66.3
8/31/26 - 1650 73.2 42.4 33 12.7 SW | 231 20.4 WSW | 241 78.3 66.3
8/31/26 - 1640 72.8 43.5 35 14.8 SW | 232 22.0 SW | 231 78.3 66.3
8/31/26 - 1630 73.8 45.1 36 13.8 SW | 230 21.6 SW | 216 78.3 66.3
8/31/26 - 1620 74.3 45.0 35 12.4 SW | 231 21.8 SW | 226 78.3 66.3
8/31/26 - 1610 75.2 43.5 32 14.4 SW | 232 21.3 SW | 214 78.3 66.3
8/31/26 - 1600 74.1 43.6 34 14.2 SW | 229 24.0 WSW | 243 78.3 66.3
8/31/26 - 1550 74.6 43.6 33 14.9 SW | 233 21.6 WSW | 239 78.3 66.3
8/31/26 - 1540 74.7 43.4 33 13.9 SW | 231 22.0 WSW | 238 78.3 66.3
8/31/26 - 1530 75.4 43.0 31 13.9 SW | 231 23.5 WSW | 248 78.3 66.3
8/31/26 - 1520 75.0 43.5 32 14.4 SW | 231 21.4 SW | 235 78.3 66.3
8/31/26 - 1510 75.7 41.6 29 13.2 SW | 230 21.9 SW | 230 78.3 66.3
8/31/26 - 1500 75.2 40.1 28 13.2 SW | 235 20.5 WSW | 249 78.3 66.3
8/31/26 - 1450 74.9 38.1 26 12.5 WSW | 238 20.4 WSW | 243 78.3 66.3
8/31/26 - 1440 74.3 39.7 29 13.9 SW | 233 24.5 SW | 235 78.3 66.3
8/31/26 - 1430 76.2 39.5 27 11.6 SW | 231 22.5 WSW | 252 78.3 66.3
8/31/26 - 1420 75.0 38.6 27 14.4 SW | 234 21.1 WSW | 240 78.3 66.3
8/31/26 - 1410 75.6 37.8 26 10.9 SW | 232 25.1 SW | 231 78.3 66.3
8/31/26 - 1400 74.6 36.1 25 12.5 SW | 230 21.3 SW | 233 77.9 66.3
8/31/26 - 1350 75.0 37.9 26 12.7 SW | 232 22.1 WSW | 244 77.9 66.3
8/31/26 - 1340 74.6 39.0 28 12.3 SW | 226 21.7 WSW | 239 77.9 66.3
8/31/26 - 1330 74.6 39.0 28 11.4 SW | 235 20.1 WSW | 241 77.9 66.3
8/31/26 - 1320 74.9 39.4 28 9.5 SW | 220 18.5 SW | 224 77.9 66.3
8/31/26 - 1310 74.8 39.1 28 11.6 SW | 233 17.7 WSW | 240 77.9 66.3
8/31/26 - 1300 74.4 39.3 28 10.8 SW | 228 19.6 WSW | 245 77.9 66.3
8/31/26 - 1250 74.5 38.8 27 11.8 SW | 232 21.7 SW | 226 77.9 66.3
8/31/26 - 1240 76.0 36.2 24 7.2 SSW | 213 16.1 SSW | 199 77.9 66.3
8/31/26 - 1230 74.7 35.8 24 9.6 SW | 234 17.6 WSW | 246 77.4 66.3
8/31/26 - 1220 73.8 35.6 25 9.8 WSW | 248 21.0 SW | 223 77.2 66.3
8/31/26 - 1210 75.2 36.5 25 8.0 SW | 218 17.5 SW | 226 77.2 66.3
8/31/26 - 1200 74.4 36.6 25 8.6 WSW | 237 17.4 WSW | 252 76.0 66.3
8/31/26 - 1150 74.6 38.2 27 8.0 SW | 235 16.2 W | 264 76.0 66.3
8/31/26 - 1140 74.1 37.7 27 8.6 SW | 229 16.7 WSW | 238 74.9 66.3
8/31/26 - 1130 73.2 39.9 30 9.5 WSW | 244 15.9 SW | 234 74.4 66.3
8/31/26 - 1120 73.3 41.6 32 7.9 SW | 228 17.3 WSW | 241 74.4 66.3
8/31/26 - 1110 71.6 48.7 44 8.5 W | 266 16.6 WSW | 258 74.4 66.3
8/31/26 - 1100 71.2 48.3 44 6.9 W | 270 11.1 W | 261 74.4 66.3
8/31/26 - 1050 71.6 47.2 42 7.3 W | 266 14.7 W | 272 74.4 66.3
8/31/26 - 1040 71.7 44.3 38 8.7 WSW | 255 14.1 SW | 229 74.4 66.3
8/31/26 - 1030 72.9 39.6 30 7.5 WSW | 237 13.7 SW | 232 74.4 66.3
8/31/26 - 1020 72.6 35.1 25 6.7 SW | 224 12.4 WSW | 242 73.6 66.3
8/31/26 - 1010 71.5 34.4 26 6.1 SW | 225 13.5 WSW | 248 72.8 66.3
8/31/26 - 1000 71.2 33.0 24 7.1 SW | 230 12.2 WSW | 245 72.6 66.3
8/31/26 - 0950 72.0 33.0 24 5.7 SW | 232 10.0 SW | 225 72.6 66.3
8/31/26 - 0940 71.3 31.9 23 5.8 SW | 219 9.4 SW | 227 71.8 66.3
8/31/26 - 0930 70.9 29.2 21 5.1 SW | 226 8.6 SW | 220 71.8 66.3
8/31/26 - 0920 70.9 26.6 19 3.9 SW | 220 8.0 SW | 230 71.3 66.3
8/31/26 - 0910 70.4 23.2 17 3.6 SW | 230 7.2 SW | 217 70.8 66.3
8/31/26 - 0900 69.8 23.1 17 4.1 SW | 225 6.4 SW | 215 70.0 66.3
8/31/26 - 0850 69.6 23.2 17 4.1 SW | 223 6.1 SW | 236 69.7 66.3
8/31/26 - 0840 69.4 22.8 17 3.6 SW | 221 5.3 SW | 223 69.6 66.3
8/31/26 - 0830 69.1 22.7 17 3.5 SW | 217 4.7 SW | 218 69.4 66.3
8/31/26 - 0820 69.0 21.6 16 4.0 SW | 226 5.3 SW | 233 69.4 66.3
8/31/26 - 0810 69.0 20.7 16 5.2 WSW | 237 6.0 WSW | 238 69.4 66.3
8/31/26 - 0800 69.1 21.0 16 5.3 WSW | 237 6.4 SW | 234 69.4 66.3
8/31/26 - 0750 69.3 21.8 16 6.2 WSW | 246 6.7 WSW | 247 69.4 66.3
8/31/26 - 0740 69.3 21.4 16 6.6 WSW | 252 6.9 WSW | 253 69.4 66.3
8/31/26 - 0730 69.1 20.3 16 5.7 WSW | 250 6.4 WSW | 253 69.2 66.3
8/31/26 - 0720 68.8 20.5 16 4.8 WSW | 248 5.8 WSW | 248 69.0 66.3
8/31/26 - 0710 68.8 20.6 16 4.6 WSW | 242 5.5 WSW | 241 69.0 66.3
8/31/26 - 0700 68.8 20.8 16 4.9 WSW | 237 5.9 WSW | 240 69.0 66.3
8/31/26 - 0650 68.6 21.0 16 4.7 SW | 235 5.6 WSW | 243 69.0 66.3
8/31/26 - 0640 68.6 20.6 16 5.4 WSW | 242 6.9 WSW | 251 69.0 66.3
8/31/26 - 0630 68.8 19.5 15 6.3 WSW | 249 7.2 WSW | 252 69.0 66.3
8/31/26 - 0620 68.3 21.6 17 5.1 WSW | 246 6.6 WSW | 249 69.0 66.3
8/31/26 - 0610 68.1 22.3 17 4.9 WSW | 250 5.6 WSW | 253 69.0 66.3
8/31/26 - 0600 66.9 25.9 21 3.3 WSW | 239 5.0 WSW | 247 69.0 66.3
8/31/26 - 0550 66.5 28.0 23 3.6 WSW | 238 4.8 WSW | 244 69.0 66.3
8/31/26 - 0540 66.8 28.0 23 4.2 WSW | 240 5.3 WSW | 250 69.0 66.3
8/31/26 - 0530 66.9 28.1 23 4.4 WSW | 245 6.2 W | 262 69.0 66.3
8/31/26 - 0520 66.5 28.8 24 4.8 WSW | 256 5.9 W | 263 69.0 66.3
8/31/26 - 0510 66.6 29.4 25 6.2 W | 267 6.7 W | 270 69.0 66.3
8/31/26 - 0500 66.6 29.9 25 5.9 W | 271 7.1 W | 266 69.0 66.3
8/31/26 - 0450 66.8 30.9 26 6.1 W | 269 7.2 W | 270 69.0 66.3
8/31/26 - 0440 66.8 32.0 27 5.1 W | 270 5.8 W | 264 69.0 66.3
8/31/26 - 0430 67.3 33.9 29 5.8 WSW | 258 7.5 WSW | 248 69.0 66.3
8/31/26 - 0420 67.8 35.2 30 7.3 WSW | 256 8.8 WSW | 258 69.0 66.3
8/31/26 - 0410 68.2 34.2 29 8.4 WSW | 250 10.4 WSW | 247 69.0 66.3
8/31/26 - 0400 68.7 30.3 24 8.9 WSW | 246 10.4 WSW | 249 69.0 66.3
8/31/26 - 0350 68.7 31.4 25 7.8 WSW | 245 9.2 WSW | 244 69.0 66.3
8/31/26 - 0340 67.9 35.1 31 6.5 WSW | 243 8.6 WSW | 248 68.9 66.3
8/31/26 - 0330 66.6 34.8 31 4.8 WSW | 248 6.4 WSW | 253 68.9 66.3
8/31/26 - 0320 66.4 36.0 32 6.2 WSW | 249 7.5 WSW | 253 68.9 66.3
8/31/26 - 0310 66.7 35.7 32 6.2 WSW | 251 7.0 WSW | 253 68.9 66.5
8/31/26 - 0300 68.4 34.7 29 5.3 SW | 233 6.6 WSW | 246 68.9 67.2
8/31/26 - 0250 68.0 32.1 26 4.1 SW | 223 5.3 SW | 215 68.9 67.4
8/31/26 - 0240 68.1 31.1 25 3.6 SW | 225 4.4 WSW | 237 68.9 67.5
8/31/26 - 0230 68.7 36.0 30 3.1 S | 180 4.1 S | 173 68.9 67.6
8/31/26 - 0220 68.2 27.2 21 3.6 SSW | 200 4.7 SSW | 213 68.6 67.6
8/31/26 - 0210 68.3 36.2 31 3.3 S | 169 4.4 SSW | 204 68.6 67.6
8/31/26 - 0200 68.4 31.3 26 2.3 SSW | 203 3.4 SW | 228 68.6 67.6
8/31/26 - 0150 68.1 31.5 26 1.2 WSW | 242 3.5 WSW | 250 68.4 67.6
8/31/26 - 0140 67.7 35.0 30 3.9 WSW | 253 4.5 W | 266 68.1 67.6
8/31/26 - 0130 68.0 32.4 27 3.4 WSW | 246 4.5 WSW | 256 68.1 67.8
8/31/26 - 0120 67.9 35.4 30 3.1 WSW | 256 3.9 W | 270 68.1 67.8
8/31/26 - 0110 68.1 36.0 31 3.8 WSW | 257 4.4 W | 263 68.1 68.0
8/31/26 - 0100 68.0 39.4 35 3.7 W | 261 4.8 W | 273 82.2 68.0
8/31/26 - 0050 68.6 38.4 33 4.2 SW | 224 5.3 SW | 215 82.2 68.2
8/31/26 - 0040 68.6 38.2 33 3.7 SSE | 161 4.2 SSE | 162 82.2 68.2
8/31/26 - 0030 68.8 38.7 33 3.9 SSE | 168 4.5 SSE | 164 82.2 68.2
8/31/26 - 0020 68.5 38.8 34 2.8 SSW | 212 3.7 SW | 222 82.2 68.2
8/31/26 - 0010 68.4 38.8 34 3.2 SW | 218 4.1 SW | 222 82.2 68.2
8/31/26 - 0000 68.2 39.5 35 4.1 SW | 222 4.7 SW | 227 82.2 68.2
8/30/26 - 2350 68.2 39.6 35 4.7 SW | 225 5.6 SW | 221 82.2 68.2
8/30/26 - 2340 68.4 39.4 35 5.6 SW | 231 6.7 SW | 233 82.2 68.3
8/30/26 - 2330 68.7 39.9 35 4.4 SSW | 213 5.7 SW | 228 82.2 68.3
8/30/26 - 2320 68.5 39.9 35 2.7 SSW | 203 4.2 SW | 234 82.2 68.3
8/30/26 - 2310 68.7 39.7 35 3.4 SW | 232 4.8 WSW | 241 82.2 68.4
8/30/26 - 2300 68.9 40.5 36 3.2 SW | 229 4.2 SW | 230 82.2 68.9
8/30/26 - 2250 69.1 43.0 39 1.8 WSW | 256 3.9 WSW | 255 82.2 68.9
8/30/26 - 2240 69.2 43.3 39 3.2 W | 264 4.4 W | 263 82.2 69.1
8/30/26 - 2230 69.4 44.8 41 2.0 WNW | 288 3.3 NW | 311 82.2 69.3
8/30/26 - 2220 69.6 47.0 44 3.2 NNW | 329 3.9 NNW | 336 82.2 69.3
8/30/26 - 2210 69.9 46.3 43 2.8 WNW | 298 4.2 WNW | 286 82.2 69.3
8/30/26 - 2200 69.9 47.2 44 3.0 NW | 310 3.7 WNW | 290 82.2 69.3
8/30/26 - 2150 69.8 44.3 40 4.5 WNW | 289 6.7 WNW | 285 82.2 69.3
8/30/26 - 2140 70.1 44.0 39 5.4 W | 276 7.5 W | 280 82.2 69.3
8/30/26 - 2130 70.3 44.6 40 4.4 W | 269 5.6 W | 278 82.2 69.3
8/30/26 - 2120 70.2 42.7 37 4.9 W | 260 5.9 W | 261 82.2 69.3
8/30/26 - 2110 69.9 40.9 35 4.3 SW | 233 5.7 SW | 236 82.2 69.3
8/30/26 - 2100 70.1 40.8 34 4.9 SW | 221 6.5 SW | 219 82.2 69.3
8/30/26 - 2050 70.2 40.5 34 5.2 SW | 233 7.9 WSW | 240 82.2 69.3
8/30/26 - 2040 70.1 40.9 35 6.5 WSW | 238 9.6 SW | 236 82.2 69.3
8/30/26 - 2030 70.0 42.6 37 7.5 SW | 228 9.6 SSW | 210 82.2 69.3
8/30/26 - 2020 70.2 42.7 37 7.6 SW | 225 10.4 SSW | 206 82.2 69.3
8/30/26 - 2010 70.0 44.3 40 8.0 SW | 215 12.1 SW | 224 82.2 69.3
8/30/26 - 2000 70.3 44.0 39 10.8 SW | 228 15.8 SW | 231 82.2 69.3
8/30/26 - 1950 70.7 43.2 37 11.8 SW | 235 16.0 WSW | 248 82.2 69.3
8/30/26 - 1940 71.0 42.5 36 11.7 WSW | 237 15.9 WSW | 246 82.2 69.3
Max 76.2 48.7 44 14.9 - 25.1 - 82.2 69.3
Avg 70.4 35.9 29 7.3 - 11.2 - - -
Min 66.0 19.5 15 1.2 - 3.3 - 68.1 65.9